Notices

What's New in latest Release from April 7th, 2021:

- Updated Glossary, including Speed of Maximum Gust, and Total Hourly Precipitation

- Updated national and regional climate services offices contacts and prices information

- Addition of station inventory lists for 1981-2010, 1971-2000, and 1961-1990 Normals.

If you haven't already, please take our survey and provide feedback about our website: https://eccc.sondage-survey.ca/f/LanguageSelection.aspx?s=442ca660-fcf1-47c0-95a9-59707d6fd709

Hourly Data Report for April 29, 2018

MIRAMICHI RCS
NEW BRUNSWICK
Current Station Operator: ECCC - MSC

47°00'34.000" N
65°27'54.000" W
33.00 m
8100989
71744
ACQ

Download Data

Hourly Data (April 2018)
Hourly Data Report for April 29, 2018
TIME
LST
Temp Definition
°C
Dew Point Definition
°C
Rel Hum Definition
%
Precip. Amount Definition
mm

Wind Dir Definition
10's deg

Wind Spd Definition
km/h
Visibility Definition
km
Stn Press Definition
kPa
Hmdx Definition


Wind Chill Definition


Weather Definition


00:00 5.3 4.5 95 0.0 27 3   100.93     LegendNANA
01:00 4.5 3.8 95 0.0 27 2   100.92     LegendNANA
02:00 3.8 3.2 96 0.0 27 4   100.95     LegendNANA
03:00 3.1 2.6 96 0.0 28 4   100.93     LegendNANA
04:00 2.9 2.4 96 0.0   0   100.88     LegendNANA
05:00 2.9 2.5 97 0.0 32 5   100.84     LegendNANA
06:00 3.4 2.9 97 0.0   0   100.87     LegendNANA
07:00 4.9 4.6 98 0.0 5 4   100.93     LegendNANA
08:00 6.6 5.9 96 0.0 2 8   100.93     LegendNANA
09:00 6.6 5.8 95 0.0 4 12   100.93     LegendNANA
10:00 6.4 5.6 95 0.0 5 15   100.97     LegendNANA
11:00 5.7 5.1 96 0.0 7 17   100.91     LegendNANA
12:00 6.8 6.2 96 0.0 6 10   100.86     LegendNANA
13:00 6.7 6.1 96 0.0 6 11   100.85     LegendNANA
14:00 7.3 5.4 88 0.0 6 8   100.85     LegendNANA
15:00 8.6 5.3 80 0.0 8 11   100.85     LegendNANA
16:00 8.3 4.9 79 0.0 4 14   100.86     LegendNANA
17:00 7.6 4.3 80 0.0 6 14   100.94     LegendNANA
18:00 6.5 4.4 86 0.0 8 20   100.99     LegendNANA
19:00 5.9 4.3 89 0.0 9 17   101.05     LegendNANA
20:00 5.6 4.1 90 0.0 8 15   101.15     LegendNANA
21:00 5.3 4.1 92 0.0 8 13   101.22     LegendNANA
22:00 4.3 3.8 96 0.0 7 12   101.27     LegendNANA
23:00 4.1 3.7 97 0.0 7 10   101.32     LegendNANA

Notes on Data Quality.

Legend

  • E = Estimated
  • M = Missing
  • NA = Not Available*
  • [empty] = Indicates an unobserved value
Date modified: